Home   Weather   Shreveport   Past weeks
Flag for USA

Past Weather in Shreveport, Louisiana, USA — Yesterday and Last 2 Weeks

Now
57 °F

Overcast.


Feels Like: 54 °F
Forecast: 64 / 52 °F
Wind: 12 mph from East

Location: Shreveport Regional Airport

Current Time: Mar 30, 2020 at 8:21:38 pm

Latest Report: Mar 30, 2020 at 7:56 pm


Visibility: 10 mi

Pressure: 29.90 "Hg

Humidity: 83%

Dew Point: 52 °F

Location of ShreveportLocation

Past Weather in Shreveport — Graph

°F

Shreveport Temperature Yesterday

Maximum temperature yesterday: 75 °F (at 2:56 pm)
Minimum temperature yesterday: 48 °F (at 5:56 am)
Average temperature yesterday: 62 °F

High & Low Weather Summary for the Past Weeks

 TemperatureHumidityPressure
High89 °F (Mar 27, 2:56 pm)100% (Mar 17, 1:56 am)30.41 "Hg (Mar 17, 1:56 am)
Low48 °F (Mar 29, 5:56 am)37% (Mar 29, 1:56 pm)29.71 "Hg (Mar 27, 5:56 pm)
Average65 °F83%30.04 "Hg
* Reported Mar 15 6:56 pm — Mar 30 6:56 pm, Shreveport. Weather by CustomWeather, © 2020

Note: Actual official high and low records may vary slightly from our data, if they occured in-between our weather recording intervals... More about our weather records

Shreveport Weather History for the Previous 24 Hours

Scroll right to see more
 ConditionsComfort  
Time TempWeatherWind HumidityBarometerVisibility
6:56 pm
Mon, Mar 30
57 °FOvercast.12 mph83%29.91 "Hg10 mi
5:56 pm60 °FOvercast.12 mph67%29.92 "Hg10 mi
4:56 pm61 °FOvercast.10 mph65%29.95 "Hg10 mi
4:43 pm61 °FOvercast.10 mph65%29.95 "Hg10 mi
4:17 pm60 °FOvercast.10 mph69%29.97 "Hg10 mi
3:56 pm59 °FOvercast.13 mph72%29.99 "Hg10 mi
2:56 pm59 °FOvercast.17 mph75%30.02 "Hg10 mi
1:56 pm61 °FMostly cloudy.3 mph75%30.07 "Hg10 mi
1:22 pm60 °FLight rain. Mostly cloudy.13 mph78%30.07 "Hg9 mi
1:05 pm61 °FRain. Mostly cloudy.7 mph75%30.10 "Hg2 mi
12:56 pm62 °FLight rain. Overcast.5 mph73%30.12 "Hg5 mi
11:56 am68 °FPartly sunny.16 mph42%30.11 "Hg10 mi
10:56 am68 °FMostly cloudy.17 mph44%30.14 "Hg10 mi
9:56 am64 °FOvercast.14 mph43%30.16 "Hg10 mi
8:56 am63 °FOvercast.15 mph48%30.17 "Hg10 mi
7:56 am63 °FOvercast.10 mph50%30.16 "Hg10 mi
6:56 am62 °FOvercast.12 mph60%30.13 "Hg10 mi
5:56 am63 °FLight rain. Overcast.6 mph65%30.11 "Hg10 mi
4:56 am62 °FMostly cloudy.6 mph62%30.10 "Hg10 mi
3:56 am63 °FMostly cloudy.8 mph58%30.10 "Hg10 mi
2:56 am62 °FMostly cloudy.7 mph65%30.10 "Hg10 mi
1:56 am60 °FMostly cloudy.No wind75%30.13 "Hg10 mi
12:56 am60 °FOvercast.No wind72%30.14 "Hg10 mi
11:56 pm
Sun, Mar 29
63 °FLight rain. Mostly cloudy.5 mph65%30.13 "Hg10 mi
10:56 pm61 °FMostly cloudy.3 mph75%30.14 "Hg10 mi
9:56 pm63 °FOvercast.No wind73%30.14 "Hg10 mi
8:56 pm67 °FMostly cloudy.3 mph53%30.14 "Hg10 mi
Weather by CustomWeather, © 2020

See weather overview

Advertising